TKJ11V LTFJ-BKPR

Flight info

Callsign TKJ11V
Flight time N/A
Altitude 36000
Route VADEN1J/06L VADEN N618 BAKLO DCT LETNI DCT XAXAN XAXAN1D
Aircraft B738/M-SDE2E3FGHIRWXY/LB1

Departure

Time 2026-04-30 15:02
Airport Istanbul Sabiha Gökçen International Airport (LTFJ)

Arrival

Time N/A
Airport Priština Adem Jashari International Airport (BKPR)
Time Latitude Longitude Altitude Speed Heading
2026-04-30 14:33 40.90453 29.31680 310 ft 0 kts 154°
2026-04-30 14:54 40.90459 29.31677 310 ft 4 kts 154°
2026-04-30 14:54 40.90509 29.31652 308 ft 4 kts 176°
2026-04-30 14:55 40.90532 29.31661 307 ft 1 kts 242°
2026-04-30 14:56 40.90493 29.31558 309 ft 15 kts 243°
2026-04-30 14:57 40.90439 29.31412 310 ft 19 kts 244°
2026-04-30 14:57 40.90326 29.31101 310 ft 18 kts 244°
2026-04-30 14:58 40.90185 29.30890 309 ft 17 kts 153°
2026-04-30 14:58 40.90078 29.30924 310 ft 16 kts 204°
2026-04-30 14:58 40.89972 29.30668 310 ft 18 kts 244°
2026-04-30 14:59 40.89832 29.30288 308 ft 26 kts 244°
2026-04-30 15:00 40.89618 29.29699 304 ft 24 kts 244°
2026-04-30 15:00 40.89467 29.29302 301 ft 15 kts 240°
2026-04-30 15:01 40.89307 29.29315 300 ft 14 kts 144°
2026-04-30 15:01 40.89290 29.29387 302 ft 13 kts 71°
2026-04-30 15:01 40.89580 29.30176 310 ft 108 kts 64°
2026-04-30 15:02 40.89984 29.31290 406 ft 153 kts 62°
2026-04-30 15:02 40.90444 29.32560 1190 ft 150 kts 62°
2026-04-30 15:03 40.91968 29.36626 2640 ft 190 kts 63°
2026-04-30 15:03 40.93219 29.39992 3243 ft 225 kts 63°
2026-04-30 15:04 40.94719 29.44072 3887 ft 262 kts 63°
2026-04-30 15:04 40.97192 29.50944 5614 ft 286 kts 63°
2026-04-30 15:05 40.99828 29.58318 7000 ft 304 kts 60°
2026-04-30 15:06 41.02990 29.61464 7014 ft 285 kts
2026-04-30 15:06 41.06702 29.60293 8168 ft 278 kts 338°
2026-04-30 15:07 41.10470 29.58802 9548 ft 286 kts 339°
2026-04-30 15:07 41.14402 29.57294 10479 ft 312 kts 339°
2026-04-30 15:08 41.18849 29.55602 11031 ft 347 kts 340°
2026-04-30 15:08 41.25932 29.53043 13061 ft 360 kts 343°
2026-04-30 15:09 41.30915 29.51704 14417 ft 369 kts 344°
2026-04-30 15:09 41.35975 29.50311 15812 ft 374 kts 343°
2026-04-30 15:10 41.41034 29.48567 17139 ft 377 kts 335°
2026-04-30 15:11 41.50910 29.43271 19634 ft 388 kts 333°
2026-04-30 15:11 41.55961 29.40664 20849 ft 391 kts 333°
2026-04-30 15:12 41.63181 29.35820 22502 ft 381 kts 306°
2026-04-30 15:13 41.65461 29.29643 23656 ft 370 kts 277°
2026-04-30 15:14 41.65822 29.15812 25415 ft 376 kts 270°
2026-04-30 15:14 41.66063 29.05286 26806 ft 378 kts 271°
2026-04-30 15:16 41.66455 28.87525 28683 ft 387 kts 271°
2026-04-30 15:17 41.66752 28.72989 30012 ft 394 kts 271°
2026-04-30 15:18 41.67066 28.54901 31871 ft 388 kts 270°
2026-04-30 15:19 41.67183 28.44140 32908 ft 385 kts 270°